Tracking 18942 objects as of 18-Jan-2018
HD Live streaming from Space Station
objects crossing your sky now

FENGYUN 1C DEB

Track FENGYUN 1C DEB now!
10-day predictions


NORAD ID: 31719
Int'l Code: 1999-025CDS
Perigee: 818.5 km
Apogee: 1,127.3 km
Inclination: 97.6 °
Period: 104.4 minutes
Semi major axis: 7343 km
RCS: 0.0117 m2 (small)
Launch date: May 10, 1999
Source: People's Republic of China (PRC)
Launch site: Taiyaun Space Center, China (TSC)

Note: This is SATELLITE DEBRIS
aabbcc
Your satellite tracking list
Your tracking list is empty




NASA's NSSDC Master Catalog

Two Line Element Set (TLE):
1 31719U 99025CDS 18018.00550199  .00000282  00000-0  25926-3 0  9992
2 31719  97.5563 293.2633 0210275 252.4674 105.3409 13.79468007537566
Source of the keplerian elements: AFSPC